Hourly Data Report for August 09, 2004

All times are specified in Local Standard Time (LST). Add 1 hour to adjust for Daylight Saving Time where and when it is observed.

TORONTO CITY
ONTARIO

43°40'00.000" N
79°24'00.000" W
112.50 m
6158355
71508
XTO

Download Data

Hourly Data (August 2004)
Hourly Data Report for August 9, 2004
TIME Temp Definition
°C
Dew Point Definition
°C
Rel Hum Definition
%
Wind Dir Definition
10's deg

Wind Spd Definition
km/h
Visibility Definition
km
Stn Press Definition
kPa
Hmdx Definition


Wind Chill Definition


Weather Definition


00:00 16.3 12.8 80 LegendMM LegendMM LegendMM 100.49     LegendNANA
01:00 15.7 12.6 82 LegendMM LegendMM LegendMM 100.48     LegendNANA
02:00 15.5 12.8 84 LegendMM LegendMM LegendMM 100.49     LegendNANA
03:00 14.7 12.2 85 LegendMM LegendMM LegendMM 100.49     LegendNANA
04:00 14.4 12.3 87 LegendMM LegendMM LegendMM 100.52     LegendNANA
05:00 14.1 12.4 89 LegendMM LegendMM LegendMM 100.53     LegendNANA
06:00 14.5 12.9 90 LegendMM LegendMM LegendMM 100.54     LegendNANA
07:00 18.0 13.3 74 LegendMM LegendMM LegendMM 100.59     LegendNANA
08:00 20.2 13.6 66 LegendMM LegendMM LegendMM 100.59     LegendNANA
09:00 22.5 14.9 62 LegendMM LegendMM LegendMM 100.59 26   LegendNANA
10:00 24.4 15.9 59 LegendMM LegendMM LegendMM 100.56 29   LegendNANA
11:00 25.2 15.8 56 LegendMM LegendMM LegendMM 100.54 30   LegendNANA
12:00 25.9 15.1 51 LegendMM LegendMM LegendMM 100.49 30   LegendNANA
13:00 26.6 16.0 52 LegendMM LegendMM LegendMM 100.41 31   LegendNANA
14:00 25.5 16.7 58 LegendMM LegendMM LegendMM 100.37 31   LegendNANA
15:00 23.4 17.5 69 LegendMM LegendMM LegendMM 100.33 29   LegendNANA
16:00 23.7 17.2 67 LegendMM LegendMM LegendMM 100.29 29   LegendNANA
17:00 23.9 16.3 62 LegendMM LegendMM LegendMM 100.23 29   LegendNANA
18:00 23.3 17.1 68 LegendMM LegendMM LegendMM 100.18 29   LegendNANA
19:00 22.9 16.5 67 LegendMM LegendMM LegendMM 100.13 28   LegendNANA
20:00 22.4 17.3 73 LegendMM LegendMM LegendMM 100.13 28   LegendNANA
21:00 22.1 17.0 73 LegendMM LegendMM LegendMM 100.12 27   LegendNANA
22:00 21.6 16.4 72 LegendMM LegendMM LegendMM 100.06 26   LegendNANA
23:00 21.4 15.4 69 LegendMM LegendMM LegendMM 99.98 26   LegendNANA

Notes on Data Quality.

Legend

  • E = Estimated
  • M = Missing
  • NA = Not Available
Date modified: